AirNav   Air Wisconsin pilot careers
 
 643 users online  

KJRB Downtown Manhattan/Wall Street Heliport
New York, New York, USA

GOING TO NEW YORK?


FAA INFORMATION EFFECTIVE 13 SEPTEMBER 2018

Location

FAA Identifier: JRB
Lat/Long: 40-42-04.3690N / 074-00-32.5020W
40-42.072817N / 074-00.541700W
40.7012136 / -74.0090283
(estimated)
Elevation: 7 ft. / 2 m (estimated)
Variation: 13W (2010)
From city: 3 miles SE of NEW YORK, NY
Time zone: UTC -4 (UTC -5 during Standard Time)
Zip code: 10004

Heliport Operations

Heliport use: Open to the public
Activation date: 11/1972
Control tower: no
ARTCC: NEW YORK CENTER
FSS: NEW YORK FLIGHT SERVICE STATION
NOTAMs facility: ISP (NOTAM-D service available)
Attendance: SAT 0700-1900, ALL SUN 0700-1700, ALL MON-FRI 0700-2200
ATTENDANCE EARLY HRS HOL & WKND SKEDS REQUIRES 24 HRS NOTICE CALL 212-248-7240.
Wind indicator: lighted
Segmented circle: no
Lights: SS-SR
Landing fee: yes

Heliport Communications

CTAF/UNICOM: 123.05
WX AWOS-3PT: 128.175 (212-425-1534)
NEW YORK APPROACH: 120.8
NEW YORK DEPARTURE: 120.8
WX ASOS at EWR (7 nm W): PHONE 973-621-2892
WX ASOS at LGA (8 nm NE): PHONE 718-672-6317
WX ASOS at TEB (9 nm N): 132.025 (201-393-0855)
WX ASOS at JFK (11 nm E): PHONE 718-656-0956
WX AWOS-3 at LDJ (12 nm SW): 124.025 (908-862-7383)
WX ASOS at CDW (16 nm NW): 135.5 (973-575-4417)
WX AWOS-3 at MMU (19 nm W): PHONE 973-290-0135

Nearby radio navigation aids

VOR radial/distance  VOR name  Freq  Var
CRIr327/7.5CANARSIE VOR/DME112.3011W
LGAr244/8.1LA GUARDIA VOR/DME113.1012W
TEBr176/9.2TETERBORO VOR/DME108.4011W
JFKr303/11.6KENNEDY VOR/DME115.9012W
COLr027/24.4COLTS NECK VOR/DME115.4011W
DPKr272/32.5DEER PARK VOR/DME117.7012W
SAXr143/32.6SPARTA VORTAC115.7011W
SBJr088/34.1SOLBERG VOR/DME112.9010W
RBVr047/37.3ROBBINSVILLE VORTAC113.8010W
BWZr110/37.4BROADWAY VOR/DME114.2011W
CMKr221/39.8CARMEL VOR/DME116.6012W

 
NDB name  Hdg/Dist  Freq  Var  ID
TORBY150/8.421412WTE - .
CHATHAM110/19.325413WCAT -.-. .- -
BABYLON287/28.527514WBBN -... -... -.

Heliport Services

Fuel available: A
Airframe service: NONE
Powerplant service: NONE
Bottled oxygen: NONE
Bulk oxygen: NONE

Runway Information

Helipad H1

Dimensions: 62 x 62 ft. / 19 x 19 m
Surface: concrete, in good condition
Weight bearing capacity: 
Single wheel: 50.0
Runway edge lights: PERI
Latitude: 40-42.072817N
Longitude: 074-00.541700W
Elevation: 7.0 ft.
Traffic pattern: leftleft
Markings: basic, in good condition

Heliport Ownership and Management from official FAA records

Ownership: Publicly-owned
Owner: ECONOMIC DEVELOPMENT CORP
110 WILLIAM ST
NEW YORK, NY 10038
Phone 212-248-7240
Manager: MR. BRIAN TOLBERT
PIER 6 EAST RIVER
NEW YORK, NY 10004
Phone 212-248-7240
SAKER AVIATION

Heliport Operational Statistics

Aircraft operations: avg 86/day *
85% air taxi
14% transient general aviation
<1% military
* for 12-month period ending 30 April 2018

Additional Remarks

NO FLTS OR APCHS OVER FDR DRIVE; TWO-WAY RDO RQRD.
BIRDS ON & INVOF HELIPORT.
BOATS MAY NAVIGATE IN WATER ALONG HELIPORT PIER.
13 HELICOPTER PARKING SPACES WITH ADDITIONAL TRANSIENT POSITIONS AVBL. FIRE STAND PIPES ON SITE.
FOR CD CTC NEW YORK APCH AT 516-683-2849.

Instrument Procedures

NOTE: All procedures below are presented as PDF files. If you need a reader for these files, you should download the free Adobe Reader.

NOT FOR NAVIGATION. Please procure official charts for flight.
FAA instrument procedures published for use from 13 September 2018 at 0901Z to 11 October 2018 at 0900Z.

NOTE: Special Take-Off Minimums/Departure Procedures apply   download (592KB)

Other nearby airports with instrument procedures:

6N5 - East 34th Street Heliport (3 nm NE)
KJRA - West 30th St Heliport (3 nm N)
KEWR - Newark Liberty International Airport (7 nm W)
KLGA - LaGuardia Airport (8 nm NE)
KTEB - Teterboro Airport (9 nm N)
KJFK - John F Kennedy International Airport (11 nm E)
KLDJ - Linden Airport (12 nm SW)
KCDW - Essex County Airport (16 nm NW)
KMMU - Morristown Municipal Airport (19 nm W)
 
Loc | Ops | Rwys | IFR | FBO | Links
Com | Nav | Svcs | Stats | Notes


 
Area around KJRB (Downtown Manhattan/Wall Street Heliport)
 
Road maps at: MapQuest Bing Google
 
Aerial photo
WARNING: Photo may not be current or correct
Aerial photo of KJRB (Downtown Manhattan/Wall Street Heliport)
Photo by New York Jet Charter Flights by GiveJet jetcharterrewards.com/newyork.htm
Photo taken 01-May-2014
looking northeast.

Do you have a better or more recent aerial photo of Downtown Manhattan/Wall Street Heliport that you would like to share? If so, please send us your photo.

 
Sectional chart

 
Airport distance calculator
Flying to Downtown Manhattan/Wall Street Heliport? Find the distance to fly.

From to KJRB

Sunrise and sunset
Times for 20-Sep-2018
 Local
(UTC-4)
 Zulu
(UTC)
Morning civil twilight06:1510:15
Sunrise06:4310:43
Sunset18:5622:56
Evening civil twilight19:2423:24

Current date and time
Zulu (UTC)  20-Sep-2018 11:32:19
Local (UTC-4)  20-Sep-2018 07:32:19
 
METAR
KJRB 201115Z VRB06KT 10SM OVC026 19/16 A3018 RMK AO2 SLP302 PWINO FZRANO RVRNO
KNYC 
5nm N 
201051Z AUTO 06004KT 10SM BKN020 OVC026 19/15 A3018 RMK AO2 SLP211 T01890150 $
KEWR 
7nm W 
201051Z 10006KT 10SM BKN022 OVC030 19/14 A3015 RMK AO2 SLP210 T01890139
KLGA 
8nm NE 
201122Z 08008KT 10SM OVC030 19/13 A3017 RMK AO2 T01890133 $
KTEB 
10nm N 
201051Z 07004KT 10SM OVC022 19/14 A3015 RMK AO2 SLP208 T01890144
KJFK 
12nm E 
201051Z 08006KT 10SM FEW018 BKN036 18/14 A3017 RMK AO2 SLP215 T01780144
KLDJ 
12nm SW 
201115Z AUTO 00000KT 10SM OVC022 19/14 A3017 RMK AO2 T01870135
KCDW 
17nm NW 
201053Z 15005KT 10SM OVC018 18/16 A3017 RMK AO2 SLP219 T01780156
KMMU 
19nm W 
201045Z 07004KT 10SM OVC018 17/17 A3016
TAF
KEWR 
7nm W 
200834Z 2009/2112 08005KT P6SM BKN020 FM201300 05007KT P6SM BKN035 FM201700 09004KT P6SM BKN035 FM202000 12005KT P6SM SCT035 FM210300 15005KT P6SM SCT020 FM210500 14005KT P6SM BKN020
KLGA 
8nm NE 
200834Z 2009/2112 05007KT P6SM OVC020 FM201300 05008KT P6SM BKN035 FM201800 06006KT P6SM SCT035 FM202100 11005KT P6SM SCT035 FM210400 14006KT P6SM BKN020
KTEB 
10nm N 
200834Z 2009/2112 07004KT P6SM OVC025 FM201300 06004KT P6SM BKN035 FM201900 VRB03KT P6SM SCT035 FM210300 VRB03KT P6SM BKN020
KJFK 
12nm E 
200834Z 2009/2112 05007KT P6SM OVC025 FM201300 05009KT P6SM BKN035 FM201700 11006KT P6SM SCT035 FM201900 14006KT P6SM SCT035 FM210400 13006KT P6SM BKN020 FM211100 16006KT P6SM BKN020
NOTAMs
Click for the latest NOTAMs
NOTAMs are issued by the DoD/FAA and will open in a separate window not controlled by AirNav.

 

 
 

FBO, Fuel Providers, and Aircraft Ground Support

  
 Business Name 
 
 Contact 
 
 Services / Description 
 
Fuel Prices
 
Comments
  
 Saker Aviation Services, Inc.
212-248-7240
212-248-7241
[web site]
[email]

Like us on facebook Follow us on twitter
Airport management, Aviation fuel, Aircraft parking (ramp or tiedown), Passenger terminal and lounge, Aerial tours / aerial sightseeing, Aircraft charters, ...

More info about Saker Aviation Services, Inc.
Avfuel
Jet A
FS $8.39 
 Updated 13-Sep-2018
 
   write
FS=Full service
Update Fuel Prices
 

Would you like to see your business listed on this page?

 If your business provides an interesting product or service to pilots, flight crews, aircraft, or users of the Downtown Manhattan/Wall Street Heliport, you should consider listing it here.  To start the listing process, click on the button below
 
Add a business
 

Other Pages about Downtown Manhattan/Wall Street Heliport

www.panynj.gov/...
www.downtownmanhattanheliport.com
 
Update a link
 
Copyright © AirNav, LLC. All rights reserved. Privacy Policy  Contact